Regional Weather Roundup
Issued by NWS Cleveland, OH

Home | Current Version | Previous Version | Text Only | Print | Product List | Glossary Off
Versions: 1 2 3 4 5 6 7 8 9 10 11 12 13 14 15 16 17 18 19 20 21 22 23 24 25 26 27 28 29 30 31 32 33 34 35 36 37 38 39 40 41 42 43 44 45 46 47 48 49 50

010
ASUS41 KCLE 291910
RWRCLE
OHIO REGIONAL WEATHER ROUNDUP
NATIONAL WEATHER SERVICE WILMINGTON, OH
300 PM EDT MON MAY 29 2017

NOTE: "FAIR" INDICATES FEW OR NO CLOUDS BELOW 12,000 FEET WITH NO
SIGNIFICANT WEATHER AND/OR OBSTRUCTIONS TO VISIBILITY.

OHZ001>008-015>018-024>027-034-035-043-044-292000-
   NORTHWEST OHIO

CITY           SKY/WX    TMP DP  RH WIND       PRES   REMARKS
DEFIANCE       FAIR      76  50  40 SW10G22   29.86S
FINDLAY        FAIR      80  49  33 W17G28    29.86S
TOLEDO EXPRESS FAIR      79  49  34 W20G30    29.84S
TOLEDO EXEC    FAIR      80  51  36 SW18G24   29.84S
LIMA           FAIR      78  53  41 SW17G25   29.89R
$$

OHZ009>014-019>023-028>033-038-089-292000-
   NORTHEAST OHIO

CITY           SKY/WX    TMP DP  RH WIND       PRES   REMARKS
CLE-HOPKINS    FAIR      78  53  41 SW15G26   29.87F
CLE-LAKEFRONT  FAIR      78  53  41 SW12G25   29.84F
CUY CO. ARPT   MOSUNNY   75  54  46 W12       29.88S
LORAIN-ELYRIA  FAIR      77  52  41 W20G26    29.87S
ASHTABULA      FAIR      76  48  37 W13       29.89R
AKRON-CANTON   FAIR      77  49  37 SW13G21   29.91S
WOOSTER        FAIR      78  52  40 SW13      29.90F
MANSFIELD      FAIR      78  52  40 SW18G25   29.90S
YOUNGSTOWN     PTSUNNY   75  50  41 SW12      29.91R
$$

OHZ042-051>053-060>062-070>072-077>081-292000-
  SOUTHWEST OHIO

CITY           SKY/WX    TMP DP  RH WIND       PRES   REMARKS
CINC-COVINGTON PTSUNNY   80  53  39 W12G18    29.95S
CINC-LUNKEN    FAIR      80  59  48 SW13G22   29.94S
HAMILTON       FAIR      82  58  43 SW8G23    29.94S
DAYTON         FAIR      75  51  43 SW17      29.93S
WRIGHT-PAT AFB PTSUNNY   78  50  37 SW16G28   29.92R
DAYTON GENERAL FAIR      79  54  41 SW13G21   29.93S
WILMINGTON     FAIR      76  57  51 SW16G22   29.94S
$$

OHZ036-037-039>041-045>050-054>059-063>069-073>076-082>088-292000-
  CENTRAL AND SOUTHEAST OHIO

CITY           SKY/WX    TMP DP  RH WIND       PRES   REMARKS
COLUMBUS       PTSUNNY   80  51  36 SW16G23   29.91S
OSU AIRPORT    PTSUNNY   80  52  37 SW16G25   29.91F
BOLTON FIELD   PTSUNNY   77  54  44 W15G24    29.94S
RICKENBACK AFB PTSUNNY   79  53  40 SW15      29.92S
NEWARK         CLOUDY    77  50  38 W14       29.92S
MARION         FAIR      79  50  36 W16G24    29.89F
LANCASTER      PTSUNNY   79  54  41 SW7       29.94R
ZANESVILLE     FAIR      80  52  37 SW9       29.93S
NEW PHILLY     FAIR      78  50  37 SW7       29.93S
$$




USA.gov is the U.S. government's official web portal to all federal, state and local government web resources and services.